Home   Weather   Recife   Past weeks

Flag for Brazil Past Weather in Recife, Pernambuco, Brazil — Yesterday and Last 2 Weeks

Now
81 °F

Passing clouds.


Feels Like: 85 °F
Forecast: 78 / 84 °F
Wind: 12 mph from Southeast

Location: Recife Aeroporto

Current Time: Sep 27, 2016 at 10:49:45 PM

Latest Report: Sep 27, 2016 at 10:00 PM


Visibility: N/A

Pressure: 29.98 "Hg

Humidity: 79%

Dew Point: 73 °F

Location of RecifeLocation

Past Weather in Recife — Graph

°F

Recife Temperature Yesterday

Maximum temperature yesterday: 84 °F (at 10:00 AM)
Minimum temperature yesterday: 77 °F (at 6:00 AM)
Average temperature yesterday: 81 °F

High & Low Weather Summary for the Past Weeks

 TemperatureHumidityPressure
High86 °F (Sep 14, 12:00 PM)94% (Sep 13, 3:00 AM)30.07 "Hg (Sep 13, 3:00 AM)
Low72 °F (Sep 13, 3:00 AM)58% (Sep 18, 1:00 PM)29.89 "Hg (Sep 25, 2:00 PM)
Average80 °F75%29.99 "Hg
* Reported Sep 12 9:00 PM — Sep 27 9:00 PM, Recife, Weather by CustomWeather, © 2016

Note: Actual official high and low records may vary slightly from our data, if they occured in-between our weather recording intervals... More about our weather records

Advertising

Recife Weather History for the Previous 24 Hours

Scroll right to see more
 ConditionsComfort  
Time TempWeatherWind HumidityBarometerVisibility
9:00 PM
Tue, Sep 27
81 °FPassing clouds.10 mph74%29.98 "HgN/A
8:00 PM81 °FPassing clouds.10 mph79%29.98 "HgN/A
7:00 PM81 °FPassing clouds.8 mph79%29.95 "HgN/A
6:00 PM81 °FPassing clouds.8 mph79%29.92 "HgN/A
5:00 PM81 °FScattered clouds.10 mph79%29.92 "HgN/A
4:00 PM82 °FPassing clouds.9 mph74%29.89 "HgN/A
3:00 PM82 °FPassing clouds.12 mph74%29.89 "HgN/A
2:00 PM84 °FPassing clouds.12 mph66%29.89 "HgN/A
1:00 PM84 °FPassing clouds.13 mph70%29.92 "HgN/A
12:00 PM86 °FScattered clouds.10 mph66%29.95 "HgN/A
11:00 AM84 °FScattered clouds.9 mph70%29.98 "HgN/A
10:00 AM84 °FScattered clouds.8 mph70%29.98 "HgN/A
9:00 AM84 °FPassing clouds.7 mph66%30.01 "HgN/A
8:00 AM82 °FScattered clouds.7 mph74%29.98 "HgN/A
7:00 AM77 °FScattered clouds.6 mph89%29.98 "HgN/A
6:00 AM77 °FScattered clouds.6 mph83%29.95 "HgN/A
5:00 AM77 °FPassing clouds.No wind83%29.92 "HgN/A
4:00 AM77 °FPassing clouds.5 mph83%29.92 "HgN/A
3:00 AM79 °FPassing clouds.7 mph79%29.92 "HgN/A
2:00 AM79 °FPassing clouds.6 mph79%29.92 "HgN/A
1:00 AM79 °FPassing clouds.6 mph79%29.95 "HgN/A
12:00 AM81 °FPassing clouds.7 mph74%29.95 "HgN/A
11:00 PM
Mon, Sep 26
81 °FPassing clouds.8 mph79%29.95 "HgN/A
10:00 PM81 °FPassing clouds.7 mph74%29.98 "HgN/A
Weather by CustomWeather, © 2016

See weather overviewHow to use our weather pages